| time (UTC) | temp F | wind direction | speed MPH | gust MPH | rain 1hr in | rain 24hr in | rain mn in | humidity % | barometer mb |
| 20260904102103 | 63 | 3 | 0.0 | 0.0 | 0.00 | 0.00 | 0.00 | 92 | 1013.3 |
| 20260904101604 | 63 | 3 | 0.0 | 0.0 | 0.00 | 0.00 | 0.00 | 92 | 1013.3 |
| 20260904101104 | 63 | 3 | 0.0 | 0.0 | 0.00 | 0.00 | 0.00 | 92 | 1013.3 |
| 20260904100604 | 64 | 3 | 0.0 | 0.0 | 0.00 | 0.00 | 0.00 | 92 | 1013.3 |
| 20260904100104 | 64 | 3 | 0.0 | 1.0 | 0.00 | 0.00 | 0.00 | 92 | 1013.3 |
| 20260904095603 | 64 | 2 | 0.0 | 1.0 | 0.00 | 0.00 | 0.00 | 92 | 1013.3 |
| 20260904094603 | 64 | 359 | 0.0 | 1.0 | 0.00 | 0.00 | 0.00 | 92 | 1013.2 |
| 20260904094103 | 65 | 359 | 0.0 | 2.0 | 0.00 | 0.00 | 0.00 | 92 | 1013.1 |
| 20260904093604 | 65 | 343 | 0.0 | 1.0 | 0.00 | 0.00 | 0.00 | 92 | 1013.0 |
| 20260904093104 | 65 | 343 | 0.0 | 2.0 | 0.00 | 0.00 | 0.00 | 92 | 1013.0 |
| 20260904092603 | 65 | 3 | 0.0 | 2.0 | 0.00 | 0.00 | 0.00 | 92 | 1013.1 |
| 20260904092104 | 65 | 3 | 0.0 | 1.0 | 0.00 | 0.00 | 0.00 | 92 | 1013.2 |
| 20260904091604 | 65 | 1 | 1.0 | 3.0 | 0.00 | 0.00 | 0.00 | 92 | 1013.1 |
| 20260904091104 | 65 | 354 | 1.0 | 3.0 | 0.00 | 0.00 | 0.00 | 93 | 1013.0 |
| 20260904090604 | 66 | 16 | 1.0 | 3.0 | 0.00 | 0.00 | 0.00 | 93 | 1013.0 |
| 20260904090103 | 66 | 347 | 1.0 | 6.0 | 0.00 | 0.00 | 0.00 | 94 | 1013.0 |
| 20260904085603 | 66 | 17 | 1.0 | 3.0 | 0.00 | 0.00 | 0.00 | 94 | 1013.0 |
| 20260904084604 | 66 | 6 | 0.0 | 3.0 | 0.00 | 0.00 | 0.00 | 95 | 1013.0 |
| 20260904084104 | 66 | 340 | 1.0 | 3.0 | 0.00 | 0.00 | 0.00 | 95 | 1013.1 |
| 20260904083603 | 66 | 348 | 2.0 | 3.0 | 0.00 | 0.00 | 0.00 | 96 | 1013.1 |
| 20260904082604 | 66 | 353 | 2.0 | 3.0 | 0.00 | 0.00 | 0.00 | 96 | 1013.0 |
| 20260904082103 | 66 | 354 | 2.0 | 5.0 | 0.00 | 0.00 | 0.00 | 96 | 1013.0 |
| 20260904081604 | 66 | 346 | 2.0 | 3.0 | 0.00 | 0.00 | 0.00 | 97 | 1012.9 |
| 20260904081103 | 66 | 352 | 1.0 | 6.0 | 0.00 | 0.00 | 0.00 | 97 | 1012.9 |
| 20260904080604 | 65 | 330 | 1.0 | 2.0 | 0.00 | 0.00 | 0.00 | 97 | 1012.8 |
| 20260904075604 | 65 | 316 | 2.0 | 5.0 | 0.00 | 0.00 | 0.00 | 97 | 1012.8 |
| 20260904074604 | 64 | 348 | 2.0 | 3.0 | 0.00 | 0.00 | 0.00 | 96 | 1012.8 |
| 20260904074104 | 64 | 15 | 1.0 | 2.0 | 0.00 | 0.00 | 0.00 | 96 | 1012.6 |
| 20260904073604 | 64 | 6 | 1.0 | 2.0 | 0.00 | 0.00 | 0.00 | 95 | 1012.5 |
| 20260904073103 | 64 | 6 | 0.0 | 1.0 | 0.00 | 0.00 | 0.00 | 95 | 1012.5 |
| 20260904072103 | 64 | 6 | 0.0 | 0.0 | 0.00 | 0.00 | 0.00 | 95 | 1012.6 |
| 20260904071604 | 64 | 6 | 0.0 | 1.0 | 0.00 | 0.00 | 0.00 | 95 | 1012.5 |
| 20260904071103 | 64 | 6 | 0.0 | 1.0 | 0.00 | 0.00 | 0.00 | 95 | 1012.5 |
| 20260904070604 | 64 | 6 | 0.0 | 2.0 | 0.00 | 0.00 | 0.00 | 95 | 1012.5 |
| 20260904070105 | 64 | 6 | 0.0 | 1.0 | 0.00 | 0.00 | 0.00 | 95 | 1012.5 |
| 20260904065103 | 65 | 6 | 1.0 | 2.0 | 0.00 | 0.00 | 0.00 | 95 | 1012.4 |
| 20260904064603 | 65 | 6 | 1.0 | 3.0 | 0.00 | 0.00 | 0.00 | 95 | 1012.4 |
| 20260904064104 | 65 | 6 | 0.0 | 2.0 | 0.00 | 0.00 | 0.00 | 95 | 1012.4 |
| 20260904063604 | 65 | 0 | 1.0 | 3.0 | 0.00 | 0.00 | 0.00 | 95 | 1012.4 |
| 20260904063103 | 65 | 357 | 1.0 | 2.0 | 0.00 | 0.00 | 0.00 | 95 | 1012.5 |
| 20260904062604 | 65 | 357 | 0.0 | 1.0 | 0.00 | 0.00 | 0.00 | 95 | 1012.4 |
| 20260904061604 | 65 | 7 | 0.0 | 0.0 | 0.00 | 0.00 | 0.00 | 95 | 1012.3 |
| 20260904061104 | 65 | 7 | 0.0 | 0.0 | 0.00 | 0.00 | 0.00 | 95 | 1012.4 |
| 20260904060104 | 65 | 5 | 0.0 | 0.0 | 0.00 | 0.00 | 0.00 | 95 | 1012.5 |
| 20260904055604 | 65 | 5 | 0.0 | 0.0 | 0.00 | 0.00 | 0.00 | 95 | 1012.6 |
| 20260904055104 | 65 | 5 | 0.0 | 0.0 | 0.00 | 0.00 | 0.00 | 95 | 1012.6 |
| 20260904054604 | 65 | 5 | 0.0 | 0.0 | 0.00 | 0.00 | 0.00 | 95 | 1012.6 |
| 20260904054103 | 66 | 5 | 0.0 | 0.0 | 0.00 | 0.00 | 0.00 | 95 | 1012.6 |
| 20260904053604 | 66 | 24 | 0.0 | 0.0 | 0.00 | 0.00 | 0.00 | 95 | 1012.7 |
| 20260904053104 | 66 | 137 | 0.0 | 0.0 | 0.00 | 0.00 | 0.00 | 95 | 1012.7 |
| 20260904052603 | 66 | 137 | 0.0 | 0.0 | 0.00 | 0.00 | 0.00 | 95 | 1012.8 |
| 20260904052104 | 66 | 137 | 0.0 | 0.0 | 0.00 | 0.00 | 0.00 | 95 | 1012.9 |
| 20260904051603 | 66 | 137 | 0.0 | 0.0 | 0.00 | 0.00 | 0.00 | 95 | 1012.9 |
| 20260904051104 | 66 | 137 | 0.0 | 0.0 | 0.00 | 0.00 | 0.00 | 95 | 1012.9 |
| 20260904050103 | 66 | 137 | 0.0 | 0.0 | 0.00 | 0.00 | 0.00 | 95 | 1012.9 |
| 20260904045604 | 66 | 137 | 0.0 | 0.0 | 0.00 | 0.00 | 0.00 | 95 | 1012.9 |
| 20260904045104 | 66 | 137 | 0.0 | 0.0 | 0.00 | 0.00 | 0.00 | 95 | 1013.0 |
| 20260904044603 | 66 | 137 | 0.0 | 0.0 | 0.00 | 0.00 | 0.00 | 95 | 1012.9 |
| 20260904044104 | 66 | 137 | 0.0 | 0.0 | 0.00 | 0.00 | 0.00 | 95 | 1012.9 |
| 20260904043603 | 66 | 137 | 0.0 | 0.0 | 0.00 | 0.00 | 0.00 | 95 | 1013.0 |
| 20260904043103 | 66 | 137 | 0.0 | 0.0 | 0.00 | 0.00 | 0.00 | 95 | 1013.0 |
| 20260904042104 | 66 | 137 | 0.0 | 0.0 | 0.00 | 0.00 | 0.00 | 95 | 1013.0 |
| 20260904041104 | 66 | 137 | 0.0 | 0.0 | 0.00 | 0.00 | 0.00 | 94 | 1013.0 |
| 20260904040603 | 66 | 137 | 0.0 | 0.0 | 0.00 | 0.00 | 0.00 | 94 | 1013.0 |
| 20260904040104 | 66 | 137 | 0.0 | 0.0 | 0.00 | 0.00 | 0.00 | 94 | 1012.9 |
| 20260904035604 | 66 | 137 | 0.0 | 0.0 | 0.00 | 0.00 | 0.00 | 93 | 1012.7 |
| 20260904035103 | 66 | 137 | 0.0 | 0.0 | 0.00 | 0.00 | 0.00 | 93 | 1012.6 |
| 20260904034603 | 66 | 137 | 0.0 | 0.0 | 0.00 | 0.00 | 0.00 | 93 | 1012.7 |
| 20260904034104 | 66 | 137 | 0.0 | 0.0 | 0.00 | 0.00 | 0.00 | 93 | 1012.5 |
| 20260904033604 | 66 | 137 | 0.0 | 0.0 | 0.00 | 0.00 | 0.00 | 93 | 1012.5 |
| 20260904033104 | 66 | 137 | 0.0 | 0.0 | 0.00 | 0.00 | 0.00 | 93 | 1012.5 |
| 20260904032103 | 66 | 137 | 0.0 | 0.0 | 0.00 | 0.00 | 0.00 | 92 | 1012.4 |
| 20260904031104 | 67 | 137 | 0.0 | 0.0 | 0.00 | 0.00 | 0.00 | 91 | 1012.3 |
| 20260904030603 | 67 | 137 | 0.0 | 0.0 | 0.00 | 0.00 | 0.00 | 91 | 1012.2 |
| 20260904030103 | 67 | 137 | 0.0 | 0.0 | 0.00 | 0.00 | 0.00 | 91 | 1012.2 |
| 20260904025604 | 68 | 137 | 0.0 | 0.0 | 0.00 | 0.00 | 0.00 | 91 | 1012.2 |
| 20260904025103 | 68 | 137 | 0.0 | 0.0 | 0.00 | 0.00 | 0.00 | 90 | 1012.2 |
| 20260904024604 | 68 | 137 | 0.0 | 0.0 | 0.00 | 0.00 | 0.00 | 90 | 1012.1 |
| 20260904024104 | 68 | 137 | 0.0 | 0.0 | 0.00 | 0.00 | 0.00 | 90 | 1012.2 |
| 20260904023604 | 69 | 137 | 0.0 | 0.0 | 0.00 | 0.00 | 0.00 | 90 | 1012.2 |
| 20260904023103 | 69 | 137 | 0.0 | 0.0 | 0.00 | 0.00 | 0.00 | 90 | 1012.2 |
| 20260904022104 | 69 | 137 | 0.0 | 0.0 | 0.00 | 0.00 | 0.00 | 89 | 1012.3 |
| 20260904021604 | 69 | 137 | 0.0 | 0.0 | 0.00 | 0.00 | 0.00 | 89 | 1012.4 |
| 20260904020604 | 70 | 137 | 0.0 | 0.0 | 0.00 | 0.00 | 0.00 | 89 | 1012.4 |
| 20260904015603 | 70 | 137 | 0.0 | 0.0 | 0.00 | 0.00 | 0.00 | 88 | 1012.6 |
| 20260904015104 | 70 | 137 | 0.0 | 0.0 | 0.00 | 0.00 | 0.00 | 87 | 1012.4 |
| 20260904014604 | 70 | 137 | 0.0 | 0.0 | 0.00 | 0.00 | 0.00 | 86 | 1012.3 |
| 20260904014104 | 70 | 137 | 0.0 | 0.0 | 0.00 | 0.00 | 0.00 | 85 | 1012.2 |
| 20260904013603 | 71 | 137 | 0.0 | 0.0 | 0.00 | 0.01 | 0.00 | 85 | 1012.2 |
| 20260904013104 | 71 | 137 | 0.0 | 3.0 | 0.00 | 0.01 | 0.00 | 85 | 1012.1 |
| 20260904012604 | 71 | 150 | 0.0 | 2.0 | 0.00 | 0.04 | 0.00 | 85 | 1012.0 |
| 20260904012104 | 71 | 143 | 1.0 | 3.0 | 0.00 | 0.15 | 0.00 | 85 | 1011.9 |
| 20260904011104 | 72 | 56 | 1.0 | 3.0 | 0.00 | 0.16 | 0.00 | 86 | 1011.8 |
| 20260904010104 | 72 | 126 | 1.0 | 2.0 | 0.00 | 0.16 | 0.00 | 85 | 1011.8 |
| 20260904005604 | 72 | 126 | 1.0 | 2.0 | 0.00 | 0.16 | 0.00 | 85 | 1011.7 |
| 20260904005104 | 73 | 127 | 1.0 | 3.0 | 0.00 | 0.16 | 0.00 | 85 | 1011.6 |
| 20260904004604 | 73 | 105 | 0.0 | 3.0 | 0.00 | 0.16 | 0.00 | 85 | 1011.7 |
| 20260904003604 | 73 | 34 | 1.0 | 5.0 | 0.00 | 0.17 | 0.00 | 86 | 1011.7 |
| 20260904003104 | 73 | 72 | 1.0 | 3.0 | 0.00 | 0.17 | 0.00 | 86 | 1011.3 |
| 20260904002604 | 73 | 52 | 2.0 | 5.0 | 0.00 | 0.17 | 0.00 | 87 | 1011.3 |
| 20260904002103 | 74 | 46 | 2.0 | 3.0 | 0.00 | 0.17 | 0.00 | 87 | 1011.3 |
| 20260904001603 | 74 | 43 | 2.0 | 3.0 | 0.00 | 0.17 | 0.00 | 88 | 1011.5 |
| 20260904000604 | 75 | 62 | 2.0 | 5.0 | 0.00 | 0.19 | 0.00 | 90 | 1011.4 |
| 20260904000103 | 76 | 70 | 3.0 | 9.0 | 0.00 | 0.20 | 0.00 | 92 | 1011.4 |
| 20260903235604 | 76 | 327 | 2.0 | 3.0 | 0.00 | 0.22 | 0.00 | 92 | 1011.3 |
| 20260903235104 | 76 | 272 | 1.0 | 3.0 | 0.00 | 0.23 | 0.00 | 92 | 1011.2 |
| 20260903234604 | 76 | 260 | 1.0 | 3.0 | 0.00 | 0.24 | 0.00 | 92 | 1011.1 |
| 20260903234103 | 76 | 269 | 1.0 | 3.0 | 0.00 | 0.25 | 0.00 | 91 | 1011.2 |
| 20260903233603 | 77 | 263 | 1.0 | 3.0 | 0.00 | 0.26 | 0.00 | 91 | 1011.1 |
| 20260903233104 | 77 | 197 | 1.0 | 3.0 | 0.00 | 0.28 | 0.00 | 91 | 1011.1 |
| 20260903232604 | 77 | 250 | 1.0 | 3.0 | 0.00 | 0.30 | 0.00 | 90 | 1011.0 |
| 20260903232105 | 77 | 232 | 1.0 | 3.0 | 0.00 | 0.31 | 0.00 | 90 | 1011.0 |
| 20260903231604 | 77 | 239 | 1.0 | 3.0 | 0.00 | 0.33 | 0.00 | 90 | 1011.0 |
| 20260903231103 | 77 | 223 | 0.0 | 2.0 | 0.00 | 0.36 | 0.00 | 90 | 1011.1 |
| 20260903230603 | 78 | 202 | 1.0 | 3.0 | 0.00 | 0.45 | 0.00 | 89 | 1011.0 |
| 20260903225602 | 78 | 255 | 0.0 | 3.0 | 0.00 | 0.48 | 0.00 | 89 | 1011.0 |
| 20260903225103 | 78 | 269 | 1.0 | 3.0 | 0.00 | 0.48 | 0.00 | 88 | 1011.0 |
| 20260903224602 | 78 | 227 | 0.0 | 2.0 | 0.00 | 0.49 | 0.00 | 88 | 1010.9 |
| 20260903224102 | 79 | 245 | 0.0 | 2.0 | 0.00 | 0.49 | 0.00 | 87 | 1011.0 |
| 20260903223102 | 79 | 241 | 1.0 | 3.0 | 0.00 | 0.49 | 0.00 | 86 | 1011.0 |
| 20260903222603 | 80 | 291 | 0.0 | 1.0 | 0.00 | 0.49 | 0.00 | 86 | 1011.2 |
| 20260903222103 | 80 | 235 | 2.0 | 3.0 | 0.00 | 0.49 | 0.00 | 85 | 1011.0 |
| 20260903221604 | 80 | 240 | 0.0 | 2.0 | 0.00 | 0.49 | 0.00 | 85 | 1010.9 |
| 20260903221103 | 80 | 220 | 1.0 | 3.0 | 0.00 | 0.49 | 0.00 | 83 | 1010.8 |
| 20260903220603 | 81 | 308 | 1.0 | 3.0 | 0.00 | 0.49 | 0.00 | 82 | 1010.7 |
| 20260903215602 | 81 | 325 | 2.0 | 3.0 | 0.00 | 0.49 | 0.00 | 82 | 1010.6 |
| 20260903215102 | 81 | 337 | 1.0 | 3.0 | 0.00 | 0.49 | 0.00 | 82 | 1010.6 |
| 20260903214602 | 81 | 221 | 2.0 | 6.0 | 0.00 | 0.49 | 0.00 | 81 | 1010.6 |
| 20260903214102 | 81 | 336 | 3.0 | 7.0 | 0.00 | 0.49 | 0.00 | 81 | 1010.6 |
| 20260903213602 | 81 | 316 | 1.0 | 3.0 | 0.00 | 0.49 | 0.00 | 82 | 1010.6 |
| 20260903213102 | 81 | 332 | 5.0 | 6.0 | 0.00 | 0.49 | 0.00 | 82 | 1010.7 |
| 20260903212602 | 82 | 321 | 2.0 | 3.0 | 0.00 | 0.49 | 0.00 | 82 | 1010.5 |
| 20260903212103 | 82 | 325 | 3.0 | 7.0 | 0.00 | 0.49 | 0.00 | 82 | 1010.5 |
| 20260903211602 | 82 | 351 | 2.0 | 3.0 | 0.00 | 0.49 | 0.00 | 84 | 1010.5 |
| 20260903211103 | 82 | 55 | 1.0 | 3.0 | 0.00 | 0.49 | 0.00 | 83 | 1010.6 |
| 20260903210603 | 82 | 15 | 0.0 | 3.0 | 0.00 | 0.49 | 0.00 | 83 | 1010.7 |
| 20260903205603 | 82 | 347 | 3.0 | 6.0 | 0.00 | 0.49 | 0.00 | 84 | 1010.9 |
| 20260903205103 | 82 | 345 | 0.0 | 3.0 | 0.00 | 0.49 | 0.00 | 84 | 1010.9 |
| 20260903204602 | 82 | 0 | 1.0 | 3.0 | 0.00 | 0.49 | 0.00 | 84 | 1010.9 |
| 20260903204103 | 82 | 353 | 2.0 | 6.0 | 0.00 | 0.49 | 0.00 | 84 | 1011.0 |
| 20260903203602 | 82 | 336 | 3.0 | 8.0 | 0.00 | 0.49 | 0.00 | 84 | 1011.0 |
| 20260903203103 | 82 | 350 | 2.0 | 8.0 | 0.00 | 0.49 | 0.00 | 84 | 1011.1 |
| 20260903202603 | 82 | 326 | 3.0 | 8.0 | 0.00 | 0.49 | 0.00 | 85 | 1011.2 |
| 20260903202103 | 82 | 305 | 2.0 | 3.0 | 0.00 | 0.49 | 0.00 | 85 | 1011.3 |
| 20260903201603 | 81 | 317 | 2.0 | 3.0 | 0.00 | 0.49 | 0.00 | 86 | 1011.3 |
| 20260903201103 | 81 | 345 | 3.0 | 7.0 | 0.00 | 0.49 | 0.00 | 85 | 1011.3 |
| 20260903200604 | 81 | 338 | 5.0 | 9.0 | 0.00 | 0.49 | 0.00 | 86 | 1011.3 |
| 20260903195602 | 80 | 332 | 2.0 | 8.0 | 0.00 | 0.49 | 0.00 | 88 | 1011.4 |
| 20260903195102 | 80 | 309 | 3.0 | 6.0 | 0.00 | 0.49 | 0.00 | 87 | 1011.5 |
| 20260903194102 | 80 | 324 | 1.0 | 3.0 | 0.00 | 0.49 | 0.00 | 88 | 1011.4 |
| 20260903193602 | 80 | 293 | 0.0 | 1.0 | 0.00 | 0.49 | 0.00 | 87 | 1011.4 |
| 20260903193102 | 80 | 280 | 1.0 | 3.0 | 0.00 | 0.49 | 0.00 | 88 | 1011.3 |
| 20260903192602 | 80 | 322 | 3.0 | 8.0 | 0.00 | 0.49 | 0.00 | 87 | 1011.4 |
| 20260903192102 | 80 | 322 | 2.0 | 3.0 | 0.00 | 0.49 | 0.00 | 87 | 1011.4 |
| 20260903191103 | 80 | 287 | 1.0 | 6.0 | 0.00 | 0.49 | 0.00 | 86 | 1011.5 |
| 20260903190602 | 80 | 308 | 3.0 | 10.0 | 0.00 | 0.49 | 0.00 | 84 | 1011.5 |
| 20260903185602 | 81 | 300 | 2.0 | 9.0 | 0.00 | 0.49 | 0.00 | 84 | 1011.5 |
| 20260903185102 | 81 | 312 | 1.0 | 3.0 | 0.00 | 0.49 | 0.00 | 84 | 1011.4 |
| 20260903184603 | 81 | 250 | 2.0 | 5.0 | 0.00 | 0.49 | 0.00 | 83 | 1011.3 |
| 20260903184102 | 82 | 248 | 3.0 | 8.0 | 0.00 | 0.49 | 0.00 | 84 | 1011.3 |
| 20260903183603 | 82 | 220 | 1.0 | 5.0 | 0.00 | 0.49 | 0.00 | 83 | 1011.2 |
| 20260903182603 | 82 | 257 | 1.0 | 5.0 | 0.00 | 0.49 | 0.00 | 84 | 1011.3 |
| 20260903181103 | 82 | 210 | 2.0 | 8.0 | 0.00 | 0.49 | 0.00 | 82 | 1011.5 |
| 20260903180602 | 82 | 279 | 1.0 | 8.0 | 0.00 | 0.49 | 0.00 | 82 | 1011.6 |
| 20260903175603 | 81 | 262 | 3.0 | 10.0 | 0.00 | 0.49 | 0.00 | 86 | 1011.7 |
| 20260903175103 | 81 | 263 | 3.0 | 8.0 | 0.00 | 0.49 | 0.00 | 83 | 1011.8 |
| 20260903174603 | 81 | 316 | 2.0 | 5.0 | 0.00 | 0.49 | 0.00 | 83 | 1011.8 |
| 20260903174102 | 81 | 298 | 2.0 | 10.0 | 0.00 | 0.49 | 0.00 | 84 | 1011.8 |
| 20260903173602 | 81 | 242 | 1.0 | 7.0 | 0.00 | 0.49 | 0.00 | 85 | 1011.8 |
| 20260903173103 | 81 | 254 | 1.0 | 6.0 | 0.00 | 0.49 | 0.00 | 84 | 1011.8 |
| 20260903172603 | 81 | 305 | 1.0 | 3.0 | 0.00 | 0.49 | 0.00 | 84 | 1011.8 |
| 20260903172103 | 81 | 255 | 2.0 | 6.0 | 0.00 | 0.49 | 0.00 | 85 | 1011.8 |
| 20260903171602 | 81 | 279 | 1.0 | 3.0 | 0.00 | 0.49 | 0.00 | 83 | 1011.9 |
| 20260903171103 | 81 | 292 | 5.0 | 9.0 | 0.00 | 0.49 | 0.00 | 83 | 1011.9 |
| 20260903165602 | 81 | 234 | 1.0 | 6.0 | 0.00 | 0.49 | 0.00 | 85 | 1011.9 |
| 20260903165102 | 80 | 264 | 2.0 | 8.0 | 0.00 | 0.49 | 0.00 | 83 | 1011.9 |
| 20260903164603 | 80 | 309 | 2.0 | 5.0 | 0.00 | 0.49 | 0.00 | 84 | 1011.9 |
| 20260903164103 | 80 | 310 | 2.0 | 7.0 | 0.00 | 0.49 | 0.00 | 84 | 1011.9 |
| 20260903163602 | 80 | 290 | 2.0 | 6.0 | 0.00 | 0.49 | 0.00 | 86 | 1012.0 |
| 20260903162602 | 80 | 211 | 2.0 | 7.0 | 0.00 | 0.49 | 0.00 | 85 | 1012.2 |
| 20260903162103 | 80 | 306 | 2.0 | 7.0 | 0.00 | 0.49 | 0.00 | 85 | 1012.2 |
| 20260903161602 | 79 | 331 | 3.0 | 8.0 | 0.00 | 0.49 | 0.00 | 84 | 1012.1 |
| 20260903161103 | 80 | 284 | 2.0 | 5.0 | 0.00 | 0.49 | 0.00 | 84 | 1012.2 |
| 20260903160603 | 80 | 290 | 3.0 | 7.0 | 0.00 | 0.49 | 0.00 | 85 | 1012.2 |
| 20260903155603 | 79 | 268 | 1.0 | 6.0 | 0.00 | 0.49 | 0.00 | 86 | 1012.4 |
| 20260903155103 | 79 | 280 | 2.0 | 3.0 | 0.00 | 0.49 | 0.00 | 85 | 1012.4 |
| 20260903154603 | 79 | 228 | 2.0 | 5.0 | 0.00 | 0.49 | 0.00 | 86 | 1012.5 |
| 20260903154103 | 79 | 341 | 1.0 | 2.0 | 0.00 | 0.49 | 0.00 | 87 | 1012.6 |
| 20260903153603 | 78 | 334 | 2.0 | 5.0 | 0.00 | 0.49 | 0.00 | 87 | 1012.6 |
| 20260903153103 | 78 | 282 | 2.0 | 7.0 | 0.00 | 0.49 | 0.00 | 86 | 1012.6 |
| 20260903152604 | 79 | 291 | 1.0 | 7.0 | 0.00 | 0.49 | 0.00 | 87 | 1012.5 |
| 20260903152103 | 78 | 304 | 2.0 | 10.0 | 0.00 | 0.49 | 0.00 | 86 | 1012.6 |
| 20260903151603 | 79 | 266 | 2.0 | 7.0 | 0.00 | 0.49 | 0.00 | 84 | 1012.6 |
| 20260903150603 | 80 | 316 | 4.0 | 7.0 | 0.00 | 0.49 | 0.00 | 88 | 1012.6 |
| 20260903145604 | 77 | 345 | 1.0 | 3.0 | 0.00 | 0.49 | 0.00 | 89 | 1012.6 |
| 20260903145102 | 77 | 316 | 2.0 | 8.0 | 0.00 | 0.49 | 0.00 | 89 | 1012.7 |
| 20260903144603 | 77 | 306 | 2.0 | 6.0 | 0.00 | 0.49 | 0.00 | 89 | 1012.7 |
| 20260903144102 | 77 | 298 | 2.0 | 8.0 | 0.00 | 0.49 | 0.00 | 89 | 1012.6 |
| 20260903143603 | 77 | 333 | 1.0 | 6.0 | 0.00 | 0.49 | 0.00 | 88 | 1012.7 |
| 20260903143103 | 77 | 271 | 2.0 | 7.0 | 0.00 | 0.49 | 0.00 | 88 | 1012.6 |
| 20260903142602 | 77 | 288 | 1.0 | 3.0 | 0.00 | 0.49 | 0.00 | 88 | 1012.6 |
| 20260903142102 | 77 | 327 | 2.0 | 6.0 | 0.00 | 0.49 | 0.00 | 90 | 1012.6 |
| 20260903141603 | 77 | 297 | 2.0 | 9.0 | 0.00 | 0.49 | 0.00 | 89 | 1012.6 |
| 20260903141102 | 77 | 302 | 3.0 | 9.0 | 0.00 | 0.49 | 0.00 | 88 | 1012.6 |
| 20260903140602 | 77 | 289 | 1.0 | 5.0 | 0.00 | 0.49 | 0.00 | 87 | 1012.6 |
| 20260903135602 | 78 | 299 | 3.0 | 8.0 | 0.00 | 0.49 | 0.00 | 90 | 1012.6 |
| 20260903135103 | 77 | 249 | 2.0 | 8.0 | 0.00 | 0.49 | 0.00 | 91 | 1012.6 |
| 20260903134603 | 76 | 257 | 2.0 | 7.0 | 0.00 | 0.49 | 0.00 | 93 | 1012.7 |
| 20260903134102 | 75 | 273 | 2.0 | 6.0 | 0.00 | 0.49 | 0.00 | 95 | 1012.7 |
| 20260903133603 | 74 | 261 | 1.0 | 3.0 | 0.00 | 0.49 | 0.00 | 98 | 1012.7 |
| 20260903133102 | 73 | 295 | 1.0 | 3.0 | 0.00 | 0.49 | 0.00 | 100 | 1012.7 |
| 20260903132603 | 73 | 263 | 1.0 | 3.0 | 0.00 | 0.49 | 0.00 | 100 | 1012.7 |
| 20260903132103 | 72 | 301 | 1.0 | 2.0 | 0.00 | 0.49 | 0.00 | 99 | 1012.8 |
| 20260903131603 | 72 | 274 | 1.0 | 3.0 | 0.00 | 0.49 | 0.00 | 100 | 1012.8 |
| 20260903131102 | 72 | 305 | 1.0 | 3.0 | 0.00 | 0.49 | 0.00 | 100 | 1012.8 |
| 20260903130602 | 71 | 283 | 1.0 | 3.0 | 0.00 | 0.49 | 0.00 | 100 | 1012.7 |
| 20260903125603 | 71 | 253 | 1.0 | 2.0 | 0.00 | 0.49 | 0.00 | 99 | 1013.0 |
| 20260903125102 | 71 | 235 | 1.0 | 2.0 | 0.00 | 0.49 | 0.00 | 100 | 1013.0 |
| 20260903124602 | 70 | 353 | 1.0 | 3.0 | 0.00 | 0.49 | 0.00 | 100 | 1013.2 |
| 20260903124103 | 70 | 286 | 1.0 | 3.0 | 0.00 | 0.49 | 0.00 | 99 | 1013.2 |
| 20260903123103 | 70 | 286 | 1.0 | 3.0 | 0.00 | 0.49 | 0.00 | 99 | 1013.2 |
| 20260903122603 | 70 | 240 | 0.0 | 5.0 | 0.00 | 0.49 | 0.00 | 99 | 1013.2 |
| 20260903122103 | 70 | 268 | 1.0 | 5.0 | 0.00 | 0.50 | 0.00 | 99 | 1013.2 |
| 20260903121602 | 70 | 303 | 2.0 | 3.0 | 0.00 | 0.50 | 0.00 | 99 | 1013.2 |
| 20260903121103 | 70 | 310 | 1.0 | 3.0 | 0.00 | 0.51 | 0.00 | 99 | 1013.1 |
| 20260903120603 | 70 | 301 | 1.0 | 6.0 | 0.00 | 0.67 | 0.00 | 99 | 1013.1 |
| 20260903115602 | 70 | 297 | 2.0 | 6.0 | 0.00 | 1.01 | 0.00 | 99 | 1012.9 |
| 20260903115103 | 70 | 284 | 1.0 | 2.0 | 0.00 | 1.06 | 0.00 | 99 | 1012.9 |
| 20260903114602 | 69 | 295 | 1.0 | 3.0 | 0.00 | 1.28 | 0.00 | 99 | 1012.8 |
| 20260903113602 | 69 | 321 | 1.0 | 3.0 | 0.00 | 1.78 | 0.00 | 99 | 1012.7 |
| 20260903113103 | 69 | 305 | 2.0 | 6.0 | 0.00 | 1.94 | 0.00 | 99 | 1012.6 |
| 20260903112603 | 69 | 308 | 1.0 | 5.0 | 0.00 | 1.94 | 0.00 | 99 | 1012.6 |
| 20260903112102 | 69 | 290 | 2.0 | 5.0 | 0.00 | 1.94 | 0.00 | 99 | 1012.5 |
| 20260903111603 | 69 | 306 | 1.0 | 3.0 | 0.00 | 1.94 | 0.00 | 99 | 1012.5 |
| 20260903111102 | 69 | 301 | 0.0 | 3.0 | 0.00 | 1.94 | 0.00 | 99 | 1012.4 |
| 20260903105603 | 69 | 297 | 0.0 | 1.0 | 0.00 | 1.94 | 0.00 | 99 | 1012.2 |
| 20260903105102 | 69 | 297 | 0.0 | 2.0 | 0.00 | 1.94 | 0.00 | 99 | 1012.2 |
| 20260903103603 | 69 | 334 | 2.0 | 3.0 | 0.00 | 1.94 | 0.00 | 99 | 1012.0 |
| 20260903103103 | 69 | 308 | 1.0 | 2.0 | 0.00 | 1.94 | 0.00 | 99 | 1011.9 |
| 20260903102602 | 69 | 308 | 1.0 | 2.0 | 0.00 | 1.94 | 0.00 | 99 | 1012.0 |